This is the latest recevied weather packets stored in our database for station/object K6HN. If no packets are shown the sender has not sent any weather packets the latest 1 day(s).
| Time | Temp. | Humidity | Pressure | Rain* | Wind** | Luminosity | Snow |
|---|---|---|---|---|---|---|---|
| 1778048879 | 12.78° C | 54% | 1003.7 hPa | 0 mm | 0.45 m/s, 277° | - | - |
| 1778047979 | 12.22° C | 54% | 1003.4 hPa | 0 mm | 0.89 m/s, 272° | - | - |
| 1778047079 | 12.78° C | 54% | 1003.7 hPa | 0 mm | 0.89 m/s, 277° | - | - |
| 1778046179 | 12.78° C | 54% | 1003.4 hPa | 0 mm | 1.34 m/s, 315° | - | - |
| 1778045279 | 12.78° C | 54% | 1003.4 hPa | 0 mm | 0.45 m/s, 282° | - | - |
| 1778044379 | 12.78° C | 54% | 1003.4 hPa | 0 mm | 0 m/s | - | - |
| 1778043479 | 12.78° C | 54% | 1003.4 hPa | 0 mm | 0.45 m/s, 283° | - | - |
| 1778042579 | 12.78° C | 54% | 1003 hPa | 0 mm | 0.45 m/s, 291° | - | - |
| 1778041679 | 12.78° C | 54% | 1003 hPa | 0 mm | 0.45 m/s, 284° | - | - |
| 1778040779 | 12.78° C | 54% | 1002.7 hPa | 0 mm | 0.89 m/s, 262° | - | - |
| 1778039879 | 12.78° C | 54% | 1002.4 hPa | 0 mm | 0.89 m/s, 258° | - | - |
| 1778038979 | 12.78° C | 54% | 1002.4 hPa | 0 mm | 0.45 m/s, 288° | - | - |
| 1778038079 | 12.78° C | 53% | 1002 hPa | 0 mm | 0.45 m/s, 284° | - | - |
| 1778037179 | 12.78° C | 54% | 1002.4 hPa | 0 mm | 0.89 m/s, 244° | - | - |
| 1778036279 | 12.78° C | 54% | 1002 hPa | 0 mm | 1.34 m/s, 262° | - | - |
| 1778035379 | 12.78° C | 54% | 1001.7 hPa | 0 mm | 1.34 m/s, 269° | - | - |
| 1778034479 | 12.78° C | 54% | 1001.7 hPa | 0 mm | 0.89 m/s, 251° | - | - |
| 1778033579 | 13.33° C | 54% | 1001.4 hPa | 0 mm | 1.79 m/s, 268° | - | - |
| 1778032679 | 13.33° C | 52% | 1002 hPa | 0 mm | 1.79 m/s, 274° | - | - |
| 1778031779 | 13.89° C | 54% | 1001.7 hPa | 0 mm | 1.34 m/s, 265° | - | - |
| 1778030879 | 15° C | 53% | 1001.7 hPa | 0 mm | 0.89 m/s, 246° | - | - |
| 1778029979 | 16.11° C | 52% | 1001.7 hPa | 0 mm | 1.79 m/s, 254° | - | - |
| 1778029079 | 16.67° C | 52% | 1001.7 hPa | 0 mm | 1.34 m/s, 269° | - | - |
| 1778028179 | 15.56° C | 53% | 1001.4 hPa | 0 mm | 0.45 m/s, 273° | - | - |
| 1778027279 | 15.56° C | 53% | 1001.4 hPa | 0 mm | 1.79 m/s, 175° | - | - |
* Rain latest hour (hover to see other rain measurements)
** Current wind speed in m/s (hover to see current wind gust speed)